Overview Statistics Trail Chart Weather Telemetry Raw packets
 

This is the latest recevied weather packets stored in our database for station/object LA4GY-1. If no packets are shown the sender has not sent any weather packets the latest 10 day(s).

<< 42 43 44 45 46 47 48 >>
Time Temp. Humidity Pressure Rain* Wind** Luminosity Snow
1788002763 15° C 81% 1004.1 hPa 0 mm - - -
1788002163 15° C 82% 1004.2 hPa 0 mm - - -
1788001563 15° C 81% 1004.3 hPa 0 mm - - -
1788000933 15° C 80% 1004.5 hPa 0 mm - - -
1788000333 15.56° C 81% 1004.9 hPa 0 mm - - -
1787999733 16.11° C 79% 1005.1 hPa 0 mm - - -
1787999133 16.11° C 76% 1005.1 hPa 0 mm - - -
1787998533 16.11° C 73% 1005.3 hPa 0 mm - - -
1787997933 16.67° C 71% 1004.9 hPa 0 mm - - -
1787997333 16.67° C 69% 1005.2 hPa 0 mm - - -
1787996733 16.67° C 70% 1005.1 hPa 0 mm - - -
1787996133 16.67° C 72% 1005.5 hPa 0 mm - - -
1787995533 16.67° C 72% 1005.6 hPa 0 mm - - -
1787994932 16.67° C 73% 1005.7 hPa 0 mm - - -
1787994332 16.11° C 75% 1005.9 hPa 0 mm - - -
1787993732 16.11° C 74% 1006 hPa 0 mm - - -
1787993132 16.11° C 73% 1006.1 hPa 0 mm - - -
1787992532 16.11° C 74% 1006.3 hPa 0 mm - - -
1787991932 16.11° C 75% 1006.3 hPa 0 mm - - -
1787991332 15.56° C 74% 1006.5 hPa 0 mm - - -
1787990732 15.56° C 76% 1006.7 hPa 0 mm - - -
1787990132 15.56° C 77% 1006.7 hPa 0 mm - - -
1787989532 15.56° C 78% 1007 hPa 0 mm - - -
1787988932 15.56° C 77% 1006.8 hPa 0 mm - - -
1787988332 15.56° C 79% 1006.9 hPa 0 mm - - -

* Rain latest hour (hover to see other rain measurements)
** Current wind speed in m/s (hover to see current wind gust speed)